TimeCDT,TemperatureF,Dew PointF,Humidity,Sea Level PressureIn,VisibilityMPH,Wind Direction,Wind SpeedMPH,Gust SpeedMPH,PrecipitationIn,Events,Conditions,WindDirDegrees,DateUTC
12:15 AM,37.0,31.6,81,29.78,10.0,SE,13.8,-,N/A,,Clear,130,2013-03-23 05:15:00
12:35 AM,36.5,31.8,83,29.78,10.0,SE,16.1,-,N/A,,Clear,140,2013-03-23 05:35:00
12:55 AM,36.0,31.8,85,29.78,7.0,SSE,16.1,-,N/A,,Clear,150,2013-03-23 05:55:00
1:15 AM,35.8,32.0,86,29.76,7.0,SE,17.3,-,N/A,,Clear,140,2013-03-23 06:15:00
1:35 AM,35.2,32.0,88,29.76,7.0,SSE,16.1,-,N/A,,Clear,150,2013-03-23 06:35:00
1:55 AM,34.9,31.8,89,29.76,7.0,SSE,19.6,-,N/A,,Clear,150,2013-03-23 06:55:00
2:15 AM,35.1,32.0,89,29.76,7.0,SSE,16.1,-,N/A,,Scattered Clouds,150,2013-03-23 07:15:00
2:35 AM,34.7,31.8,89,29.75,5.0,SSE,17.3,21.9,N/A,,Scattered Clouds,150,2013-03-23 07:35:00
2:55 AM,34.7,32.0,90,29.74,7.0,SE,21.9,-,N/A,,Mostly Cloudy,140,2013-03-23 07:55:00
3:15 AM,34.7,31.8,89,29.73,7.0,SE,21.9,28.8,N/A,,Overcast,140,2013-03-23 08:15:00
3:35 AM,34.7,32.0,90,29.74,5.0,South,19.6,-,N/A,,Overcast,170,2013-03-23 08:35:00
3:55 AM,34.3,32.0,91,29.73,5.0,South,19.6,-,N/A,,Overcast,170,2013-03-23 08:55:00
4:15 AM,34.2,31.8,91,29.71,5.0,South,21.9,26.5,N/A,,Overcast,170,2013-03-23 09:15:00
4:35 AM,34.2,31.8,91,29.70,5.0,SSE,24.2,29.9,N/A,,Overcast,160,2013-03-23 09:35:00
4:55 AM,34.2,32.0,92,29.70,5.0,SSE,25.3,31.1,N/A,,Overcast,160,2013-03-23 09:55:00
5:15 AM,35.1,32.0,89,29.71,7.0,SSE,18.4,28.8,N/A,,Overcast,160,2013-03-23 10:15:00
5:35 AM,35.2,32.0,88,29.70,7.0,South,25.3,28.8,N/A,,Overcast,170,2013-03-23 10:35:00
5:55 AM,35.6,32.5,89,29.71,5.0,South,20.7,26.5,N/A,,Overcast,170,2013-03-23 10:55:00
6:15 AM,35.8,32.7,89,29.71,7.0,SSE,20.7,25.3,N/A,,Overcast,160,2013-03-23 11:15:00
6:35 AM,36.0,32.9,89,29.74,5.0,South,10.4,-,N/A,,Overcast,180,2013-03-23 11:35:00
6:55 AM,36.0,32.9,89,29.79,5.0,WNW,3.5,-,N/A,,Overcast,290,2013-03-23 11:55:00
7:15 AM,36.1,33.1,89,29.77,5.0,Calm,Calm,-,N/A,,Overcast,0,2013-03-23 12:15:00
7:35 AM,36.1,32.9,88,29.78,5.0,Calm,Calm,-,N/A,,Overcast,0,2013-03-23 12:35:00
7:55 AM,36.5,33.1,87,29.77,4.0,SSE,10.4,-,N/A,,Overcast,150,2013-03-23 12:55:00
8:15 AM,36.7,33.3,87,29.79,5.0,East,6.9,-,N/A,,Overcast,100,2013-03-23 13:15:00
8:35 AM,36.9,33.3,87,29.79,5.0,SE,6.9,-,N/A,,Overcast,130,2013-03-23 13:35:00
8:55 AM,37.0,33.3,86,29.79,5.0,ESE,8.1,-,N/A,,Overcast,120,2013-03-23 13:55:00
9:35 AM,37.9,33.6,84,29.78,5.0,SE,9.2,-,N/A,,Overcast,140,2013-03-23 14:35:00
9:55 AM,38.3,33.8,84,29.79,5.0,SE,6.9,-,N/A,,Overcast,140,2013-03-23 14:55:00
10:15 AM,38.5,34.2,84,29.79,5.0,SE,9.2,-,N/A,,Overcast,140,2013-03-23 15:15:00
10:35 AM,38.5,34.5,86,29.79,5.0,SE,8.1,-,N/A,,Haze,140,2013-03-23 15:35:00
10:55 AM,39.2,34.7,84,29.79,5.0,SE,8.1,-,N/A,,Overcast,130,2013-03-23 15:55:00
11:15 AM,39.6,35.2,85,29.79,4.0,SSE,9.2,-,N/A,,Haze,150,2013-03-23 16:15:00
11:35 AM,39.6,35.2,85,29.79,4.0,SSE,6.9,-,N/A,,Haze,150,2013-03-23 16:35:00
11:55 AM,39.6,35.8,86,29.78,3.0,SE,8.1,-,N/A,,Overcast,140,2013-03-23 16:55:00
12:15 PM,39.9,35.8,85,29.78,3.0,SE,8.1,-,N/A,,Overcast,140,2013-03-23 17:15:00
12:35 PM,40.1,35.8,85,29.76,3.0,SE,10.4,-,N/A,,Overcast,130,2013-03-23 17:35:00
12:55 PM,41.0,36.3,83,29.76,4.0,SE,10.4,-,N/A,,Haze,130,2013-03-23 17:55:00
1:15 PM,41.2,36.3,83,29.76,5.0,ESE,5.8,-,N/A,,Haze,120,2013-03-23 18:15:00
1:35 PM,41.5,36.5,82,29.75,5.0,SE,5.8,-,N/A,,Haze,130,2013-03-23 18:35:00
1:55 PM,41.7,36.5,82,29.74,5.0,SE,4.6,-,N/A,,Haze,140,2013-03-23 18:55:00
2:15 PM,42.8,36.1,77,29.74,7.0,SE,9.2,-,N/A,,Overcast,140,2013-03-23 19:15:00
2:35 PM,42.1,36.3,80,29.73,5.0,SE,5.8,-,N/A,,Haze,140,2013-03-23 19:35:00
2:55 PM,43.5,36.7,77,29.72,7.0,East,10.4,-,N/A,,Overcast,100,2013-03-23 19:55:00
3:15 PM,43.7,36.7,76,29.71,7.0,ESE,11.5,-,N/A,,Overcast,110,2013-03-23 20:15:00
3:35 PM,44.2,36.7,75,29.69,7.0,East,13.8,18.4,N/A,,Overcast,90,2013-03-23 20:35:00
3:55 PM,38.1,34.2,86,29.69,10.0,ENE,19.6,-,N/A,,Overcast,70,2013-03-23 20:55:00
4:15 PM,37.0,33.8,88,29.66,7.0,East,20.7,-,N/A,,Overcast,80,2013-03-23 21:15:00
4:35 PM,36.7,33.4,88,29.65,10.0,ENE,23.0,-,N/A,,Overcast,70,2013-03-23 21:35:00
4:55 PM,36.0,33.1,89,29.64,7.0,ENE,20.7,-,N/A,,Overcast,70,2013-03-23 21:55:00
5:15 PM,35.1,32.5,91,29.63,3.0,East,20.7,29.9,N/A,,Overcast,80,2013-03-23 22:15:00
5:35 PM,34.7,32.5,92,29.71,2.5,ENE,18.4,-,N/A,Rain-Thunderstorm,Light Thunderstorms and Rain,70,2013-03-23 22:35:00
5:55 PM,33.8,32.0,93,29.77,1.5,North,17.3,-,N/A,Rain-Thunderstorm,Light Thunderstorms and Rain,10,2013-03-23 22:55:00
6:15 PM,32.4,31.1,95,29.80,1.2,NNE,13.8,-,N/A,Rain,Light Rain,20,2013-03-23 23:15:00
6:35 PM,32.0,30.7,95,29.80,0.8,North,15.0,-,N/A,Snow,Light Snow,10,2013-03-23 23:35:00
6:55 PM,31.6,30.2,94,29.84,1.2,North,24.2,-,N/A,Snow,Light Snow,360,2013-03-23 23:55:00
7:15 PM,31.1,29.8,95,29.86,4.0,North,25.3,31.1,N/A,Snow,Light Snow,360,2013-03-24 00:15:00
7:35 PM,31.1,29.3,93,29.88,1.8,North,25.3,32.2,N/A,Snow,Light Snow,360,2013-03-24 00:35:00
8:15 PM,30.0,27.9,92,29.93,5.0,North,27.6,34.5,N/A,Snow,Light Snow,350,2013-03-24 01:15:00
8:35 PM,29.5,27.3,92,29.96,1.0,North,26.5,33.4,N/A,Snow,Snow,350,2013-03-24 01:35:00
8:55 PM,28.4,26.2,92,29.96,1.2,North,25.3,34.5,N/A,Snow,Light Snow,360,2013-03-24 01:55:00
9:15 PM,27.9,25.3,90,29.98,7.0,North,27.6,33.4,N/A,Snow,Light Snow,350,2013-03-24 02:15:00
9:35 PM,27.7,25.2,90,30.00,10.0,NNW,28.8,36.8,N/A,Snow,Light Snow,340,2013-03-24 02:35:00
9:55 PM,27.5,24.6,89,30.03,10.0,NNW,25.3,34.5,N/A,,Overcast,340,2013-03-24 02:55:00
10:15 PM,27.1,24.4,90,30.04,1.8,NNW,26.5,31.1,N/A,Snow,Light Snow,340,2013-03-24 03:15:00
10:35 PM,26.2,23.5,90,30.05,1.8,NNW,26.5,36.8,N/A,Snow,Light Snow,340,2013-03-24 03:35:00
10:55 PM,25.3,22.8,90,30.05,1.0,NNW,32.2,39.1,N/A,Snow,Light Snow,330,2013-03-24 03:55:00
11:15 PM,24.8,22.1,89,30.07,2.5,NNW,25.3,35.7,N/A,Snow,Light Snow,330,2013-03-24 04:15:00
11:35 PM,24.3,21.0,87,30.07,10.0,NNW,29.9,35.7,N/A,,Overcast,340,2013-03-24 04:35:00
11:55 PM,23.9,20.8,88,30.08,10.0,NNW,29.9,35.7,N/A,,Overcast,340,2013-03-24 04:55:00